Year,Month,Day,Hour,Minute,Value (Times are PST for temperature in C)
2020,05,05,00,00,8.40
2020,05,05,00,01,8.40
2020,05,05,00,02,8.40
2020,05,05,00,03,8.40
2020,05,05,00,04,8.50
2020,05,05,00,05,8.60
2020,05,05,00,06,8.60
2020,05,05,00,07,8.60
2020,05,05,00,08,8.60
2020,05,05,00,09,8.70
2020,05,05,00,10,8.70
2020,05,05,00,11,8.70
2020,05,05,00,12,8.70
2020,05,05,00,13,8.70
2020,05,05,00,14,8.70
2020,05,05,00,15,8.70
2020,05,05,00,16,8.70
2020,05,05,00,17,8.70
2020,05,05,00,18,8.70
2020,05,05,00,19,8.70
2020,05,05,00,20,8.70
2020,05,05,00,21,8.70
2020,05,05,00,22,8.70
2020,05,05,00,23,8.70
2020,05,05,00,24,8.80
2020,05,05,00,25,8.80
2020,05,05,00,26,8.90
2020,05,05,00,27,8.90
2020,05,05,00,28,8.90
2020,05,05,00,29,9.00
2020,05,05,00,30,9.00
2020,05,05,00,31,9.10
2020,05,05,00,32,9.10
2020,05,05,00,33,9.10
2020,05,05,00,34,9.10
2020,05,05,00,35,9.10
2020,05,05,00,36,9.10
2020,05,05,00,37,9.10
2020,05,05,00,38,9.00
2020,05,05,00,39,9.00
2020,05,05,00,40,8.90
2020,05,05,00,41,8.80
2020,05,05,00,42,8.80
2020,05,05,00,43,8.70
2020,05,05,00,44,8.70
2020,05,05,00,45,8.60
2020,05,05,00,46,8.50
2020,05,05,00,47,8.40
2020,05,05,00,48,8.30
2020,05,05,00,49,8.20
2020,05,05,00,50,8.10
2020,05,05,00,51,8.10
2020,05,05,00,52,8.00
2020,05,05,00,53,7.90
2020,05,05,00,54,7.90
2020,05,05,00,55,7.80
2020,05,05,00,56,7.80
2020,05,05,00,57,7.80
2020,05,05,00,58,7.80
2020,05,05,00,59,7.80
2020,05,05,01,00,7.80
2020,05,05,01,01,7.80
2020,05,05,01,02,7.80
2020,05,05,01,03,7.80
2020,05,05,01,04,7.80
2020,05,05,01,05,7.80
2020,05,05,01,06,7.80
2020,05,05,01,07,7.90
2020,05,05,01,08,7.90
2020,05,05,01,09,8.00
2020,05,05,01,10,8.00
2020,05,05,01,11,8.10
2020,05,05,01,12,8.10
2020,05,05,01,13,8.10
2020,05,05,01,14,8.20
2020,05,05,01,15,8.20
2020,05,05,01,16,8.20
2020,05,05,01,17,8.20
2020,05,05,01,18,8.20
2020,05,05,01,19,8.20
2020,05,05,01,20,8.20
2020,05,05,01,21,8.10
2020,05,05,01,22,8.10
2020,05,05,01,23,8.10
2020,05,05,01,24,8.00
2020,05,05,01,25,8.00
2020,05,05,01,26,8.00
2020,05,05,01,27,7.90
2020,05,05,01,28,7.90
2020,05,05,01,29,7.80
2020,05,05,01,30,7.70
2020,05,05,01,31,7.60
2020,05,05,01,32,7.60
2020,05,05,01,33,7.50
2020,05,05,01,34,7.50
2020,05,05,01,35,7.50
2020,05,05,01,36,7.40
2020,05,05,01,37,7.30
2020,05,05,01,38,7.30
2020,05,05,01,39,7.30
2020,05,05,01,40,7.20
2020,05,05,01,41,7.20
2020,05,05,01,42,7.20
2020,05,05,01,43,7.20
2020,05,05,01,44,7.20
2020,05,05,01,45,7.20
2020,05,05,01,46,7.20
2020,05,05,01,47,7.20
2020,05,05,01,48,7.20
2020,05,05,01,49,7.20
2020,05,05,01,50,7.20
2020,05,05,01,51,7.20
2020,05,05,01,52,7.20
2020,05,05,01,53,7.20
2020,05,05,01,54,7.10
2020,05,05,01,55,7.10
2020,05,05,01,56,7.00
2020,05,05,01,57,6.90
2020,05,05,01,58,6.80
2020,05,05,01,59,6.70
2020,05,05,02,00,6.70
2020,05,05,02,01,6.60
2020,05,05,02,02,6.60
2020,05,05,02,03,6.50
2020,05,05,02,04,6.40
2020,05,05,02,05,6.40
2020,05,05,02,06,6.40
2020,05,05,02,07,6.30
2020,05,05,02,08,6.30
2020,05,05,02,09,6.30
2020,05,05,02,10,6.30
2020,05,05,02,11,6.30
2020,05,05,02,12,6.20
2020,05,05,02,13,6.20
2020,05,05,02,14,6.20
2020,05,05,02,15,6.20
2020,05,05,02,16,6.20
2020,05,05,02,17,6.10
2020,05,05,02,18,6.10
2020,05,05,02,19,6.10
2020,05,05,02,20,6.10
2020,05,05,02,21,6.10
2020,05,05,02,22,6.00
2020,05,05,02,23,6.00
2020,05,05,02,24,6.00
2020,05,05,02,25,6.00
2020,05,05,02,26,6.00
2020,05,05,02,27,5.90
2020,05,05,02,28,5.90
2020,05,05,02,29,5.90
2020,05,05,02,30,5.90
2020,05,05,02,31,5.90
2020,05,05,02,32,5.90
2020,05,05,02,33,5.90
2020,05,05,02,34,5.90
2020,05,05,02,35,5.90
2020,05,05,02,36,5.90
2020,05,05,02,37,5.90
2020,05,05,02,38,5.90
2020,05,05,02,39,5.90
2020,05,05,02,40,5.90
2020,05,05,02,41,5.90
2020,05,05,02,42,5.90
2020,05,05,02,43,5.90
2020,05,05,02,44,5.90
2020,05,05,02,45,5.90
2020,05,05,02,46,5.90
2020,05,05,02,47,5.90
2020,05,05,02,48,5.90
2020,05,05,02,49,5.90
2020,05,05,02,50,5.90
2020,05,05,02,51,5.90
2020,05,05,02,52,5.90
2020,05,05,02,53,5.90
2020,05,05,02,54,6.00
2020,05,05,02,55,5.90
2020,05,05,02,56,5.90
2020,05,05,02,57,5.90
2020,05,05,02,58,5.90
2020,05,05,02,59,5.90
2020,05,05,03,00,5.90
2020,05,05,03,01,5.90
2020,05,05,03,02,5.90
2020,05,05,03,03,5.90
2020,05,05,03,04,5.90
2020,05,05,03,05,5.90
2020,05,05,03,06,5.90
2020,05,05,03,07,5.90
2020,05,05,03,08,5.90
2020,05,05,03,09,5.90
2020,05,05,03,10,5.90
2020,05,05,03,11,5.90
2020,05,05,03,12,5.90
2020,05,05,03,13,5.90
2020,05,05,03,14,5.90
2020,05,05,03,15,5.90
2020,05,05,03,16,5.90
2020,05,05,03,17,5.90
2020,05,05,03,18,5.90
2020,05,05,03,19,6.00
2020,05,05,03,20,6.00
2020,05,05,03,21,6.00
2020,05,05,03,22,6.00
2020,05,05,03,23,6.00
2020,05,05,03,24,6.00
2020,05,05,03,25,6.00
2020,05,05,03,26,6.00
2020,05,05,03,27,6.00
2020,05,05,03,28,5.90
2020,05,05,03,29,5.90
2020,05,05,03,30,5.90
2020,05,05,03,31,5.90
2020,05,05,03,32,5.90
2020,05,05,03,33,5.80
2020,05,05,03,34,5.80
2020,05,05,03,35,5.80
2020,05,05,03,36,5.80
2020,05,05,03,37,5.80
2020,05,05,03,38,5.80
2020,05,05,03,39,5.80
2020,05,05,03,40,5.90
2020,05,05,03,41,5.90
2020,05,05,03,42,5.90
2020,05,05,03,43,5.90
2020,05,05,03,44,5.90
2020,05,05,03,45,5.80
2020,05,05,03,46,5.80
2020,05,05,03,47,5.80
2020,05,05,03,48,5.80
2020,05,05,03,49,5.80
2020,05,05,03,50,5.80
2020,05,05,03,51,5.80
2020,05,05,03,52,5.70
2020,05,05,03,53,5.70
2020,05,05,03,54,5.70
2020,05,05,03,55,5.70
2020,05,05,03,56,5.70
2020,05,05,03,57,5.60
2020,05,05,03,58,5.60
2020,05,05,03,59,5.60
2020,05,05,04,00,5.60
2020,05,05,04,01,5.60
2020,05,05,04,02,5.50
2020,05,05,04,03,5.50
2020,05,05,04,04,5.60
2020,05,05,04,05,5.60
2020,05,05,04,06,5.60
2020,05,05,04,07,5.60
2020,05,05,04,08,5.60
2020,05,05,04,09,5.50
2020,05,05,04,10,5.50
2020,05,05,04,11,5.50
2020,05,05,04,12,5.50
2020,05,05,04,13,5.50
2020,05,05,04,14,5.40
2020,05,05,04,15,5.40
2020,05,05,04,16,5.40
2020,05,05,04,17,5.40
2020,05,05,04,18,5.40
2020,05,05,04,19,5.40
2020,05,05,04,20,5.30
2020,05,05,04,21,5.30
2020,05,05,04,22,5.30
2020,05,05,04,23,5.30
2020,05,05,04,24,5.30
2020,05,05,04,25,5.30
2020,05,05,04,26,5.30
2020,05,05,04,27,5.30
2020,05,05,04,28,5.30
2020,05,05,04,29,5.30
2020,05,05,04,30,5.30
2020,05,05,04,31,5.30
2020,05,05,04,32,5.30
2020,05,05,04,33,5.30
2020,05,05,04,34,5.20
2020,05,05,04,35,5.20
2020,05,05,04,36,5.20
2020,05,05,04,37,5.20
2020,05,05,04,38,5.20
2020,05,05,04,39,5.20
2020,05,05,04,40,5.20
2020,05,05,04,41,5.20
2020,05,05,04,42,5.30
2020,05,05,04,43,5.30
2020,05,05,04,44,5.30
2020,05,05,04,45,5.30
2020,05,05,04,46,5.30
2020,05,05,04,47,5.30
2020,05,05,04,48,5.30
2020,05,05,04,49,5.20
2020,05,05,04,50,5.20
2020,05,05,04,51,5.20
2020,05,05,04,52,5.20
2020,05,05,04,53,5.20
2020,05,05,04,54,5.20
2020,05,05,04,55,5.20
2020,05,05,04,56,5.10
2020,05,05,04,57,5.10
2020,05,05,04,58,5.10
2020,05,05,04,59,5.10
2020,05,05,05,00,5.10
2020,05,05,05,01,5.00
2020,05,05,05,02,5.00
2020,05,05,05,03,4.90
2020,05,05,05,04,4.90
2020,05,05,05,05,4.90
2020,05,05,05,06,4.90
2020,05,05,05,07,4.90
2020,05,05,05,08,4.80
2020,05,05,05,09,4.80
2020,05,05,05,10,4.80
2020,05,05,05,11,4.80
2020,05,05,05,12,4.80
2020,05,05,05,13,4.80
2020,05,05,05,14,4.80
2020,05,05,05,15,4.70
2020,05,05,05,16,4.70
2020,05,05,05,17,4.80
2020,05,05,05,18,4.80
2020,05,05,05,19,4.80
2020,05,05,05,20,4.80
2020,05,05,05,21,4.80
2020,05,05,05,22,4.80
2020,05,05,05,23,4.80
2020,05,05,05,24,4.80
2020,05,05,05,25,4.70
2020,05,05,05,26,4.70
2020,05,05,05,27,4.60
2020,05,05,05,28,4.60
2020,05,05,05,29,4.60
2020,05,05,05,30,4.60
2020,05,05,05,31,4.50
2020,05,05,05,32,4.50
2020,05,05,05,33,4.50
2020,05,05,05,34,4.60
2020,05,05,05,35,4.60
2020,05,05,05,36,4.70
2020,05,05,05,37,4.60
2020,05,05,05,38,4.60
2020,05,05,05,39,4.60
2020,05,05,05,40,4.60
2020,05,05,05,41,4.50
2020,05,05,05,42,4.50
2020,05,05,05,43,4.50
2020,05,05,05,44,4.50
2020,05,05,05,45,4.50
2020,05,05,05,46,4.50
2020,05,05,05,47,4.50
2020,05,05,05,48,4.50
2020,05,05,05,49,4.50
2020,05,05,05,50,4.40
2020,05,05,05,51,4.40
2020,05,05,05,52,4.40
2020,05,05,05,53,4.40
2020,05,05,05,54,4.40
2020,05,05,05,55,4.30
2020,05,05,05,56,4.30
2020,05,05,05,57,4.30
2020,05,05,05,58,4.30
2020,05,05,05,59,4.40
2020,05,05,06,00,4.40
2020,05,05,06,01,4.40
2020,05,05,06,02,4.40
2020,05,05,06,03,4.40
2020,05,05,06,04,4.40
2020,05,05,06,05,4.30
2020,05,05,06,06,4.30
2020,05,05,06,07,4.30
2020,05,05,06,08,4.30
2020,05,05,06,09,4.30
2020,05,05,06,10,4.30
2020,05,05,06,11,4.30
2020,05,05,06,12,4.30
2020,05,05,06,13,4.20
2020,05,05,06,14,4.20
2020,05,05,06,15,4.20
2020,05,05,06,16,4.20
2020,05,05,06,17,4.20
2020,05,05,06,18,4.20
2020,05,05,06,19,4.20
2020,05,05,06,20,4.20
2020,05,05,06,21,4.20
2020,05,05,06,22,4.20
2020,05,05,06,23,4.20
2020,05,05,06,24,4.20
2020,05,05,06,25,4.30
2020,05,05,06,26,4.30
2020,05,05,06,27,4.30
2020,05,05,06,28,4.30
2020,05,05,06,29,4.20
2020,05,05,06,30,4.20
2020,05,05,06,31,4.20
2020,05,05,06,32,4.20
2020,05,05,06,33,4.20
2020,05,05,06,34,4.20
2020,05,05,06,35,4.20
2020,05,05,06,36,4.20
2020,05,05,06,37,4.30
2020,05,05,06,38,4.30
2020,05,05,06,39,4.30
2020,05,05,06,40,4.30
2020,05,05,06,41,4.30
2020,05,05,06,42,4.30
2020,05,05,06,43,4.30
2020,05,05,06,44,4.30
2020,05,05,06,45,4.30
2020,05,05,06,46,4.30
2020,05,05,06,47,4.30
2020,05,05,06,48,4.30
2020,05,05,06,49,4.30
2020,05,05,06,50,4.30
2020,05,05,06,51,4.40
2020,05,05,06,52,4.40
2020,05,05,06,53,4.40
2020,05,05,06,54,4.40
2020,05,05,06,55,4.40
2020,05,05,06,56,4.40
2020,05,05,06,57,4.50
2020,05,05,06,58,4.50
2020,05,05,06,59,4.60
2020,05,05,07,00,4.60
2020,05,05,07,01,4.60
2020,05,05,07,02,4.60
2020,05,05,07,03,4.60
2020,05,05,07,04,4.60
2020,05,05,07,05,4.60
2020,05,05,07,06,4.60
2020,05,05,07,07,4.70
2020,05,05,07,08,4.60
2020,05,05,07,09,4.60
2020,05,05,07,10,4.60
2020,05,05,07,11,4.70
2020,05,05,07,12,4.70
2020,05,05,07,13,4.70
2020,05,05,07,14,4.80
2020,05,05,07,15,4.90
2020,05,05,07,16,4.90
2020,05,05,07,17,5.00
2020,05,05,07,18,5.10
2020,05,05,07,19,5.20
2020,05,05,07,20,5.30
2020,05,05,07,21,5.40
2020,05,05,07,22,5.50
2020,05,05,07,23,5.60
2020,05,05,07,24,5.60
2020,05,05,07,25,5.70
2020,05,05,07,26,5.80
2020,05,05,07,27,5.80
2020,05,05,07,28,5.90
2020,05,05,07,29,6.00
2020,05,05,07,30,6.10
2020,05,05,07,31,6.10
2020,05,05,07,32,6.20
2020,05,05,07,33,6.20
2020,05,05,07,34,6.30
2020,05,05,07,35,6.30
2020,05,05,07,36,6.40
2020,05,05,07,37,6.40
2020,05,05,07,38,6.50
2020,05,05,07,39,6.60
2020,05,05,07,40,6.60
2020,05,05,07,41,6.70
2020,05,05,07,42,6.80
2020,05,05,07,43,6.90
2020,05,05,07,44,7.00
2020,05,05,07,45,7.10
2020,05,05,07,46,7.10
2020,05,05,07,47,7.20
2020,05,05,07,48,7.30
2020,05,05,07,49,7.40
2020,05,05,07,50,7.40
2020,05,05,07,51,7.50
2020,05,05,07,52,7.60
2020,05,05,07,53,7.70
2020,05,05,07,54,7.70
2020,05,05,07,55,7.80
2020,05,05,07,56,7.80
2020,05,05,07,57,7.90
2020,05,05,07,58,8.00
2020,05,05,07,59,8.10
2020,05,05,08,00,8.20
2020,05,05,08,01,8.40
2020,05,05,08,02,8.50
2020,05,05,08,03,8.50
2020,05,05,08,04,8.60
2020,05,05,08,05,8.70
2020,05,05,08,06,8.80
2020,05,05,08,07,8.90
2020,05,05,08,08,9.00
2020,05,05,08,09,9.10
2020,05,05,08,10,9.20
2020,05,05,08,11,9.30
2020,05,05,08,12,9.40
2020,05,05,08,13,9.50
2020,05,05,08,14,9.60
2020,05,05,08,15,9.70
2020,05,05,08,16,9.80
2020,05,05,08,17,9.80
2020,05,05,08,18,9.90
2020,05,05,08,19,10.00
2020,05,05,08,20,10.00
2020,05,05,08,21,10.00
2020,05,05,08,22,10.10
2020,05,05,08,23,10.10
2020,05,05,08,24,10.10
2020,05,05,08,25,10.10
2020,05,05,08,26,10.20
2020,05,05,08,27,10.30
2020,05,05,08,28,10.40
2020,05,05,08,29,10.60
2020,05,05,08,30,10.70
2020,05,05,08,31,10.80
2020,05,05,08,32,11.00
2020,05,05,08,33,11.10
2020,05,05,08,34,11.30
2020,05,05,08,35,11.40
2020,05,05,08,36,11.50
2020,05,05,08,37,11.50
2020,05,05,08,38,11.60
2020,05,05,08,39,11.70
2020,05,05,08,40,11.70
2020,05,05,08,41,11.80
2020,05,05,08,42,11.80
2020,05,05,08,43,11.90
2020,05,05,08,44,11.90
2020,05,05,08,45,12.00
2020,05,05,08,46,12.10
2020,05,05,08,47,12.20
2020,05,05,08,48,12.20
2020,05,05,08,49,12.30
2020,05,05,08,50,12.30
2020,05,05,08,51,12.30
2020,05,05,08,52,12.40
2020,05,05,08,53,12.40
2020,05,05,08,54,12.50
2020,05,05,08,55,12.60
2020,05,05,08,56,12.70
2020,05,05,08,57,12.70
2020,05,05,08,58,12.80
2020,05,05,08,59,12.80
2020,05,05,09,00,12.80
2020,05,05,09,01,12.80
2020,05,05,09,02,12.80
2020,05,05,09,03,12.80
2020,05,05,09,04,12.80
2020,05,05,09,05,12.70
2020,05,05,09,06,12.80
2020,05,05,09,07,12.80
2020,05,05,09,08,12.80
2020,05,05,09,09,12.90
2020,05,05,09,10,12.90
2020,05,05,09,11,12.90
2020,05,05,09,12,12.90
2020,05,05,09,13,12.80
2020,05,05,09,14,12.70
2020,05,05,09,15,12.70
2020,05,05,09,16,12.60
2020,05,05,09,17,12.60
2020,05,05,09,18,12.60
2020,05,05,09,19,12.70
2020,05,05,09,20,12.80
2020,05,05,09,21,12.80
2020,05,05,09,22,12.80
2020,05,05,09,23,12.90
2020,05,05,09,24,12.90
2020,05,05,09,25,13.00
2020,05,05,09,26,13.00
2020,05,05,09,27,12.90
2020,05,05,09,28,12.90
2020,05,05,09,29,12.80
2020,05,05,09,30,12.90
2020,05,05,09,31,12.90
2020,05,05,09,32,12.90
2020,05,05,09,33,12.90
2020,05,05,09,34,13.00
2020,05,05,09,35,13.10
2020,05,05,09,36,13.20
2020,05,05,09,37,13.20
2020,05,05,09,38,13.20
2020,05,05,09,39,13.20
2020,05,05,09,40,13.20
2020,05,05,09,41,13.30
2020,05,05,09,42,13.40
2020,05,05,09,43,13.40
2020,05,05,09,44,13.50
2020,05,05,09,45,13.50
2020,05,05,09,46,13.50
2020,05,05,09,47,13.50
2020,05,05,09,48,13.50
2020,05,05,09,49,13.50
2020,05,05,09,50,13.60
2020,05,05,09,51,13.60
2020,05,05,09,52,13.70
2020,05,05,09,53,13.70
2020,05,05,09,54,13.70
2020,05,05,09,55,13.70
2020,05,05,09,56,13.70
2020,05,05,09,57,13.70
2020,05,05,09,58,13.70
2020,05,05,09,59,13.70
2020,05,05,10,00,13.70
2020,05,05,10,01,13.60
2020,05,05,10,02,13.60
2020,05,05,10,03,13.60
2020,05,05,10,04,13.60
2020,05,05,10,05,13.60
2020,05,05,10,06,13.50
2020,05,05,10,07,13.60
2020,05,05,10,08,13.60
2020,05,05,10,09,13.60
2020,05,05,10,10,13.60
2020,05,05,10,11,13.60
2020,05,05,10,12,13.60
2020,05,05,10,13,13.50
2020,05,05,10,14,13.40
2020,05,05,10,15,13.50
2020,05,05,10,16,13.50
2020,05,05,10,17,13.60
2020,05,05,10,18,13.50
2020,05,05,10,19,13.50
2020,05,05,10,20,13.40
2020,05,05,10,21,13.40
2020,05,05,10,22,13.40
2020,05,05,10,23,13.50
2020,05,05,10,24,13.50
2020,05,05,10,25,13.50
2020,05,05,10,26,13.40
2020,05,05,10,27,13.20
2020,05,05,10,28,13.10
2020,05,05,10,29,13.10
2020,05,05,10,30,13.00
2020,05,05,10,31,12.90
2020,05,05,10,32,12.90
2020,05,05,10,33,12.80
2020,05,05,10,34,12.80
2020,05,05,10,35,12.80
2020,05,05,10,36,12.80
2020,05,05,10,37,12.80
2020,05,05,10,38,12.80
2020,05,05,10,39,12.80
2020,05,05,10,40,12.70
2020,05,05,10,41,12.70
2020,05,05,10,42,12.60
2020,05,05,10,43,12.60
2020,05,05,10,44,12.50
2020,05,05,10,45,12.50
2020,05,05,10,46,12.60
2020,05,05,10,47,12.60
2020,05,05,10,48,12.60
2020,05,05,10,49,12.70
2020,05,05,10,50,12.70
2020,05,05,10,51,12.70
2020,05,05,10,52,12.70
2020,05,05,10,53,12.70
2020,05,05,10,54,12.70
2020,05,05,10,55,12.70
2020,05,05,10,56,12.60
2020,05,05,10,57,12.50
2020,05,05,10,58,12.40
2020,05,05,10,59,12.30
2020,05,05,11,00,12.30
2020,05,05,11,01,12.20
2020,05,05,11,02,12.20
2020,05,05,11,03,12.20
2020,05,05,11,04,12.20
2020,05,05,11,05,12.30
2020,05,05,11,06,12.30
2020,05,05,11,07,12.50
2020,05,05,11,08,12.60
2020,05,05,11,09,12.70
2020,05,05,11,10,12.80
2020,05,05,11,11,12.80
2020,05,05,11,12,12.90
2020,05,05,11,13,12.90
2020,05,05,11,14,12.90
2020,05,05,11,15,13.00
2020,05,05,11,16,13.00
2020,05,05,11,17,13.10
2020,05,05,11,18,13.20
2020,05,05,11,19,13.30
2020,05,05,11,20,13.30
2020,05,05,11,21,13.30
2020,05,05,11,22,13.40
2020,05,05,11,23,13.40
2020,05,05,11,24,13.50
2020,05,05,11,25,13.60
2020,05,05,11,26,13.70
2020,05,05,11,27,13.80
2020,05,05,11,28,13.80
2020,05,05,11,29,13.80
2020,05,05,11,30,13.90
2020,05,05,11,31,13.90
2020,05,05,11,32,14.00
2020,05,05,11,33,14.10
2020,05,05,11,34,14.10
2020,05,05,11,35,14.10
2020,05,05,11,36,14.10
2020,05,05,11,37,14.10
2020,05,05,11,38,14.20
2020,05,05,11,39,14.20
2020,05,05,11,40,14.30
2020,05,05,11,41,14.30
2020,05,05,11,42,14.40
2020,05,05,11,43,14.50
2020,05,05,11,44,14.50
2020,05,05,11,45,14.50
2020,05,05,11,46,14.60
2020,05,05,11,47,14.50
2020,05,05,11,48,14.30
2020,05,05,11,49,14.10
2020,05,05,11,50,13.90
2020,05,05,11,51,13.80
2020,05,05,11,52,13.70
2020,05,05,11,53,13.60
2020,05,05,11,54,13.50
2020,05,05,11,55,13.50
2020,05,05,11,56,13.40
2020,05,05,11,57,13.40
2020,05,05,11,58,13.40
2020,05,05,11,59,13.40
2020,05,05,12,00,13.50
2020,05,05,12,01,13.50
2020,05,05,12,02,13.60
2020,05,05,12,03,13.60
2020,05,05,12,04,13.60
2020,05,05,12,05,13.60
2020,05,05,12,06,13.70
2020,05,05,12,07,13.70
2020,05,05,12,08,13.80
2020,05,05,12,09,14.00
2020,05,05,12,10,14.10
2020,05,05,12,11,14.20
2020,05,05,12,12,14.30
2020,05,05,12,13,14.30
2020,05,05,12,14,14.30
2020,05,05,12,15,14.30
2020,05,05,12,16,14.40
2020,05,05,12,17,14.50
2020,05,05,12,18,14.60
2020,05,05,12,19,14.70
2020,05,05,12,20,14.70
2020,05,05,12,21,14.70
2020,05,05,12,22,14.70
2020,05,05,12,23,14.80
2020,05,05,12,24,14.80
2020,05,05,12,25,14.70
2020,05,05,12,26,14.60
2020,05,05,12,27,14.50
2020,05,05,12,28,14.40
2020,05,05,12,29,14.40
2020,05,05,12,30,14.40
2020,05,05,12,31,14.40
2020,05,05,12,32,14.50
2020,05,05,12,33,14.60
2020,05,05,12,34,14.60
2020,05,05,12,35,14.50
2020,05,05,12,36,14.50
2020,05,05,12,37,14.30
2020,05,05,12,38,14.20
2020,05,05,12,39,14.10
2020,05,05,12,40,14.10
2020,05,05,12,41,14.10
2020,05,05,12,42,14.00
2020,05,05,12,43,14.00
2020,05,05,12,44,13.90
2020,05,05,12,45,13.90
2020,05,05,12,46,13.80
2020,05,05,12,47,13.80
2020,05,05,12,48,13.90
2020,05,05,12,49,13.90
2020,05,05,12,50,13.90
2020,05,05,12,51,13.90
2020,05,05,12,52,13.90
2020,05,05,12,53,13.90
2020,05,05,12,54,13.90
2020,05,05,12,55,13.90
2020,05,05,12,56,13.90
2020,05,05,12,57,13.90
2020,05,05,12,58,14.00
2020,05,05,12,59,14.10
2020,05,05,13,00,14.20
2020,05,05,13,01,14.30
2020,05,05,13,02,14.40
2020,05,05,13,03,14.40
2020,05,05,13,04,14.50
2020,05,05,13,05,14.60
2020,05,05,13,06,14.60
2020,05,05,13,07,14.60
2020,05,05,13,08,14.60
2020,05,05,13,09,14.60
2020,05,05,13,10,14.60
2020,05,05,13,11,14.70
2020,05,05,13,12,14.80
2020,05,05,13,13,14.90
2020,05,05,13,14,14.90
2020,05,05,13,15,14.90
2020,05,05,13,16,14.90
2020,05,05,13,17,14.90
2020,05,05,13,18,14.90
2020,05,05,13,19,14.90
2020,05,05,13,20,14.90
2020,05,05,13,21,14.90
2020,05,05,13,22,14.90
2020,05,05,13,23,15.00
2020,05,05,13,24,15.10
2020,05,05,13,25,15.20
2020,05,05,13,26,15.30
2020,05,05,13,27,15.30
2020,05,05,13,28,15.30
2020,05,05,13,29,15.40
2020,05,05,13,30,15.50
2020,05,05,13,31,15.50
2020,05,05,13,32,15.50
2020,05,05,13,33,15.50
2020,05,05,13,34,15.60
2020,05,05,13,35,15.60
2020,05,05,13,36,15.50
2020,05,05,13,37,15.40
2020,05,05,13,38,15.20
2020,05,05,13,39,15.10
2020,05,05,13,40,15.10
2020,05,05,13,41,15.10
2020,05,05,13,42,15.10
2020,05,05,13,43,15.10
2020,05,05,13,44,15.10
2020,05,05,13,45,15.10
2020,05,05,13,46,15.10
2020,05,05,13,47,15.10
2020,05,05,13,48,15.10
2020,05,05,13,49,15.00
2020,05,05,13,50,15.00
2020,05,05,13,51,15.10
2020,05,05,13,52,15.20
2020,05,05,13,53,15.30
2020,05,05,13,54,15.40
2020,05,05,13,55,15.40
2020,05,05,13,56,15.40
2020,05,05,13,57,15.40
2020,05,05,13,58,15.30
2020,05,05,13,59,15.30
2020,05,05,14,00,15.30
2020,05,05,14,01,15.30
2020,05,05,14,02,15.30
2020,05,05,14,03,15.30
2020,05,05,14,04,15.40
2020,05,05,14,05,15.50
2020,05,05,14,06,15.60
2020,05,05,14,07,15.70
2020,05,05,14,08,15.70
2020,05,05,14,09,15.80
2020,05,05,14,10,15.80
2020,05,05,14,11,15.70
2020,05,05,14,12,15.60
2020,05,05,14,13,15.60
2020,05,05,14,14,15.50
2020,05,05,14,15,15.40
2020,05,05,14,16,15.40
2020,05,05,14,17,15.30
2020,05,05,14,18,15.30
2020,05,05,14,19,15.20
2020,05,05,14,20,15.10
2020,05,05,14,21,15.10
2020,05,05,14,22,15.10
2020,05,05,14,23,15.10
2020,05,05,14,24,15.10
2020,05,05,14,25,15.20
2020,05,05,14,26,15.20
2020,05,05,14,27,15.30
2020,05,05,14,28,15.40
2020,05,05,14,29,15.40
2020,05,05,14,30,15.50
2020,05,05,14,31,15.50
2020,05,05,14,32,15.50
2020,05,05,14,33,15.40
2020,05,05,14,34,15.40
2020,05,05,14,35,15.40
2020,05,05,14,36,15.40
2020,05,05,14,37,15.30
2020,05,05,14,38,15.30
2020,05,05,14,39,15.30
2020,05,05,14,40,15.30
2020,05,05,14,41,15.30
2020,05,05,14,42,15.40
2020,05,05,14,43,15.50
2020,05,05,14,44,15.50
2020,05,05,14,45,15.60
2020,05,05,14,46,15.70
2020,05,05,14,47,15.60
2020,05,05,14,48,15.60
2020,05,05,14,49,15.50
2020,05,05,14,50,15.50
2020,05,05,14,51,15.60
2020,05,05,14,52,15.50
2020,05,05,14,53,15.50
2020,05,05,14,54,15.50
2020,05,05,14,55,15.60
2020,05,05,14,56,15.60
2020,05,05,14,57,15.60
2020,05,05,14,58,15.70
2020,05,05,14,59,15.70
2020,05,05,15,00,15.70
2020,05,05,15,01,15.70
2020,05,05,15,02,15.70
2020,05,05,15,03,15.70
2020,05,05,15,04,15.80
2020,05,05,15,05,15.80
2020,05,05,15,06,15.80
2020,05,05,15,07,15.80
2020,05,05,15,08,15.90
2020,05,05,15,09,16.00
2020,05,05,15,10,16.00
2020,05,05,15,11,16.10
2020,05,05,15,12,16.00
2020,05,05,15,13,16.10
2020,05,05,15,14,16.10
2020,05,05,15,15,16.10
2020,05,05,15,16,16.00
2020,05,05,15,17,15.90
2020,05,05,15,18,15.80
2020,05,05,15,19,15.80
2020,05,05,15,20,15.80
2020,05,05,15,21,15.80
2020,05,05,15,22,15.90
2020,05,05,15,23,16.00
2020,05,05,15,24,16.10
2020,05,05,15,25,16.20
2020,05,05,15,26,16.20
2020,05,05,15,27,16.20
2020,05,05,15,28,16.20
2020,05,05,15,29,16.30
2020,05,05,15,30,16.20
2020,05,05,15,31,16.20
2020,05,05,15,32,16.20
2020,05,05,15,33,16.30
2020,05,05,15,34,16.30
2020,05,05,15,35,16.30
2020,05,05,15,36,16.30
2020,05,05,15,37,16.30
2020,05,05,15,38,16.30
2020,05,05,15,39,16.30
2020,05,05,15,40,16.30
2020,05,05,15,41,16.20
2020,05,05,15,42,16.20
2020,05,05,15,43,16.10
2020,05,05,15,44,16.10
2020,05,05,15,45,16.00
2020,05,05,15,46,16.00
2020,05,05,15,47,16.00
2020,05,05,15,48,16.10
2020,05,05,15,49,16.10
2020,05,05,15,50,16.10
2020,05,05,15,51,16.20
2020,05,05,15,52,16.10
2020,05,05,15,53,16.10
2020,05,05,15,54,16.10
2020,05,05,15,55,16.10
2020,05,05,15,56,16.10
2020,05,05,15,57,16.10
2020,05,05,15,58,16.20
2020,05,05,15,59,16.20
2020,05,05,16,00,16.20
2020,05,05,16,01,16.20
2020,05,05,16,02,16.30
2020,05,05,16,03,16.40
2020,05,05,16,04,16.50
2020,05,05,16,05,16.50
2020,05,05,16,06,16.60
2020,05,05,16,07,16.60
2020,05,05,16,08,16.60
2020,05,05,16,09,16.70
2020,05,05,16,10,16.80
2020,05,05,16,11,16.90
2020,05,05,16,12,16.90
2020,05,05,16,13,17.00
2020,05,05,16,14,17.10
2020,05,05,16,15,17.00
2020,05,05,16,16,17.00
2020,05,05,16,17,17.10
2020,05,05,16,18,17.10
2020,05,05,16,19,17.10
2020,05,05,16,20,17.10
2020,05,05,16,21,17.10
2020,05,05,16,22,17.10
2020,05,05,16,23,17.10
2020,05,05,16,24,17.10
2020,05,05,16,25,17.10
2020,05,05,16,26,17.10
2020,05,05,16,27,17.20
2020,05,05,16,28,17.20
2020,05,05,16,29,17.20
2020,05,05,16,30,17.20
2020,05,05,16,31,17.20
2020,05,05,16,32,17.10
2020,05,05,16,33,17.10
2020,05,05,16,34,17.00
2020,05,05,16,35,16.90
2020,05,05,16,36,16.70
2020,05,05,16,37,16.60
2020,05,05,16,38,16.40
2020,05,05,16,39,16.30
2020,05,05,16,40,16.20
2020,05,05,16,41,16.20
2020,05,05,16,42,16.30
2020,05,05,16,43,16.30
2020,05,05,16,44,16.40
2020,05,05,16,45,16.50
2020,05,05,16,46,16.60
2020,05,05,16,47,16.60
2020,05,05,16,48,16.60
2020,05,05,16,49,16.60
2020,05,05,16,50,16.60
2020,05,05,16,51,16.70
2020,05,05,16,52,16.70
2020,05,05,16,53,16.70
2020,05,05,16,54,16.80
2020,05,05,16,55,16.80
2020,05,05,16,56,16.80
2020,05,05,16,57,16.70
2020,05,05,16,58,16.80
2020,05,05,16,59,16.80
2020,05,05,17,00,16.80
2020,05,05,17,01,16.80
2020,05,05,17,02,16.80
2020,05,05,17,03,16.80
2020,05,05,17,04,16.80
2020,05,05,17,05,16.80
2020,05,05,17,06,16.90
2020,05,05,17,07,16.90
2020,05,05,17,08,17.00
2020,05,05,17,09,17.00
2020,05,05,17,10,17.00
2020,05,05,17,11,17.00
2020,05,05,17,12,17.00
2020,05,05,17,13,17.10
2020,05,05,17,14,17.10
2020,05,05,17,15,17.10
2020,05,05,17,16,17.20
2020,05,05,17,17,17.20
2020,05,05,17,18,17.30
2020,05,05,17,19,17.30
2020,05,05,17,20,17.30
2020,05,05,17,21,17.40
2020,05,05,17,22,17.40
2020,05,05,17,23,17.40
2020,05,05,17,24,17.40
2020,05,05,17,25,17.40
2020,05,05,17,26,17.40
2020,05,05,17,27,17.40
2020,05,05,17,28,17.40
2020,05,05,17,29,17.40
2020,05,05,17,30,17.40
2020,05,05,17,31,17.30
2020,05,05,17,32,17.30
2020,05,05,17,33,17.30
2020,05,05,17,34,17.30
2020,05,05,17,35,17.20
2020,05,05,17,36,17.20
2020,05,05,17,37,17.20
2020,05,05,17,38,17.20
2020,05,05,17,39,17.20
2020,05,05,17,40,17.20
2020,05,05,17,41,17.20